Temp
63 63 63 62 62 61 61 62 62 61 61 61 61 60 60 60 60 60 61 61 61 61 61 61 62 63 61 64 73 86 81 80 83 84 82 82 80 83 78 82 73 69 74 77 78 76 68
63 62 62 62 61 61 61 61 61 61 61 60 60 60 60 60 60 60 61 60 60 60 61 62 63 63 60 65 89 87 86 83 85 84 83 84 83 86 83 80 69 73 69 74 79 74 72
62 62 62 62 61 61 61 61 61 60 60 60 60 60 60 60 60 60 60 60 60 60 61 63 64 67 68 73 93 90 88 82 84 87 82 89 91 83 86 82 78 75 68 70 76 73 70
62 62 62 62 61 60 60 60 60 60 60 60 60 59 59 59 60 60 59 59 59 61 62 65 64 66 64 91 90 92 90 87 89 89 89 90 90 84 80 83 80 73 71 63 64 68 73
62 62 62 62 61 60 60 60 60 60 60 59 59 59 59 59 59 58 58 58 60 62 65 65 60 62 71 86 86 91 92 88 85 87 88 98 85 76 80 71 67 74 62 62 62 68 67
62 61 61 61 61 61 60 60 60 60 60 59 59 59 59 59 58 57 57 57 64 62 66 74 76 66 79 84 88 91 90 93 85 83 83 79 72 66 68 62 54 64 65 64 61 66 66
62 62 61 61 60 60 60 59 59 60 60 59 59 58 58 58 57 56 57 69 66 65 71 72 74 79 88 87 91 87 90 88 85 77 66 74 62 58 67 73 75 77 69 67 64 69 67
62 61 61 61 60 60 59 59 59 59 59 59 58 58 58 57 57 56 54 69 80 83 72 82 85 86 89 91 83 87 90 76 76 67 73 65 60 73 80 80 78 76 70 66 63 67 64
61 61 60 60 60 60 59 59 58 58 58 58 58 58 57 57 56 55 69 79 90 89 70 81 88 87 85 84 83 81 84 81 75 70 71 64 71 82 80 77 76 72 68 65 63 69 76
62 61 60 60 60 59 59 59 58 58 58 58 58 58 57 54 61 75 79 88 90 91 61 74 78 85 87 87 78 92 90 84 79 71 74 70 80 80 76 74 73 62 79 76 73 66 55
63 62 61 60 60 59 59 58 58 58 58 58 58 57 56 55 57 71 85 93 92 83 48 80 81 94 88 78 81 83 91 83 74 75 68 69 74 74 72 75 77 69 80 74 74 64 59
61 61 61 60 60 59 59 58 58 58 58 58 58 57 55 60 60 71 84 88 86 60 53 76 84 80 78 81 83 84 83 83 84 76 73 75 83 76 73 81 80 83 74 71 68 60 49
62 61 61 60 60 59 58 58 58 58 57 57 56 55 54 68 72 86 86 80 58 54 80 75 75 80 77 76 78 78 76 71 65 56 59 72 74 76 81 71 77 74 61 49 46 47 47
62 61 61 60 59 59 58 58 58 57 57 56 55 53 58 68 78 85 81 65 52 70 74 81 79 78 73 78 76 78 73 67 75 71 62 61 58 72 80 71 64 67 61 50 45 46 49
62 61 61 60 59 59 58 58 57 57 57 56 54 71 71 76 74 78 68 56 60 71 82 79 77 71 72 77 72 74 71 70 76 69 58 59 63 79 81 79 72 66 58 68 57 57 49
62 61 61 60 60 59 58 58 57 57 57 56 57 67 76 90 87 78 63 56 67 79 81 80 67 74 67 74 71 68 69 77 76 80 70 65 61 71 80 80 77 67 71 57 55 44 44
61 61 61 60 60 59 59 58 57 57 56 55 62 67 85 92 89 70 59 64 74 83 85 75 73 71 72 73 74 69 71 77 82 80 74 65 61 67 71 64 61 63 60 58 54 48 42
61 60 60 60 60 59 59 58 57 55 54 61 67 63 88 94 67 67 65 71 69 79 85 78 78 75 72 76 70 70 72 76 83 79 68 69 62 55 59 68 72 67 60 59 49 44 46
60 60 60 60 60 59 59 58 56 55 55 55 58 66 85 89 64 66 71 75 79 78 80 79 76 78 78 70 64 72 77 82 84 77 64 68 58 50 53 60 66 62 65 63 59 52 46
60 60 61 60 60 60 59 58 56 55 55 55 59 60 73 77 76 71 69 71 73 84 83 83 79 79 73 67 70 67 73 82 83 78 74 70 60 56 51 55 58 57 65 63 57 48 48
60 60 60 61 60 60 59 58 57 55 55 55 62 63 69 61 64 66 71 71 71 71 82 80 74 77 71 61 67 67 74 76 80 72 74 67 56 58 64 69 66 65 66 68 58 54 50
59 60 60 60 60 60 59 58 57 56 55 57 59 61 65 62 67 67 65 67 71 74 76 75 72 78 75 65 67 65 69 66 66 73 69 69 57 58 59 71 67 64 66 68 64 63 58
59 60 60 60 61 60 59 58 58 56 55 63 67 68 62 58 63 63 64 68 72 77 79 80 80 76 73 75 80 75 75 73 66 65 66 65 59 55 50 64 66 56 62 65 65 62 62
59 59 60 60 61 60 60 59 58 58 56 60 62 62 58 56 62 63 69 72 71 72 70 81 82 75 79 84 82 79 76 73 74 72 70 62 58 56 50 55 45 55 66 71 69 66 61
59 59 59 60 60 60 60 59 59 58 57 58 62 61 59 53 61 63 68 68 69 70 71 76 81 80 83 79 66 62 61 60 67 72 68 68 60 52 48 47 55 62 66 66 61 55 63
58 58 59 60 60 60 60 60 59 59 58 58 62 65 60 54 56 65 62 65 62 64 68 74 81 83 78 69 63 53 52 59 58 62 67 67 64 56 51 45 45 57 72 77 72 49 63
58 58 58 59 59 59 59 60 59 59 58 57 60 65 60 53 60 63 60 61 68 65 61 68 69 72 76 62 58 55 55 66 55 55 54 56 55 52 51 49 56 67 72 74 52 51 65
57 58 58 58 58 59 59 59 59 59 59 58 60 66 59 55 57 63 67 60 63 63 59 64 63 67 66 59 59 57 57 60 59 60 57 55 51 51 51 46 45 69 69 59 63 69 67
57 57 57 58 58 58 58 58 58 58 58 58 57 65 64 55 55 63 64 66 67 68 63 63 64 65 66 62 62 60 58 61 57 52 65 55 59 56 57 54 64 67 65 66 71 67 69
MSLP
1020.84 1020.69 1020.44 1020.14 1019.83 1019.52 1019.22 1018.81 1018.44 1018.11 1017.74 1017.42 1017.04 1016.65 1016.25 1015.85 1015.45 1015.06 1014.66 1014.32 1014.06 1013.82 1013.64 1013.38 1013.20 1012.98 1012.66 1011.28 1007.97 1006.60 1006.79 1007.10 1007.31 1007.29 1007.06 1006.83 1006.22 1005.55 1005.23 1005.21 1006.83 1008.55 1009.04 1009.94 1009.99 1010.80 1011.84
1021.03 1020.91 1020.68 1020.39 1020.09 1019.71 1019.36 1018.97 1018.55 1018.18 1017.79 1017.44 1017.05 1016.60 1016.18 1015.71 1015.24 1014.79 1014.35 1014.02 1013.77 1013.52 1013.33 1013.12 1012.97 1012.91 1012.24 1009.24 1005.97 1006.26 1006.54 1006.99 1006.84 1006.93 1006.48 1006.18 1005.40 1004.76 1004.60 1004.87 1006.54 1008.06 1008.21 1009.86 1010.00 1010.70 1011.30
1021.30 1021.12 1020.92 1020.59 1020.24 1019.85 1019.45 1019.03 1018.60 1018.25 1017.84 1017.42 1016.95 1016.48 1016.04 1015.60 1015.08 1014.53 1014.01 1013.70 1013.39 1013.23 1013.03 1012.83 1012.76 1012.53 1010.85 1007.42 1005.38 1005.65 1006.10 1006.34 1006.17 1006.10 1005.82 1005.16 1004.63 1004.75 1004.58 1004.77 1006.48 1007.66 1008.19 1009.33 1009.92 1010.83 1011.43
1021.54 1021.28 1021.10 1020.71 1020.35 1020.00 1019.54 1019.09 1018.66 1018.26 1017.82 1017.38 1016.90 1016.39 1015.91 1015.45 1014.96 1014.35 1013.73 1013.24 1012.99 1012.80 1012.66 1012.48 1012.57 1012.01 1009.29 1005.41 1005.22 1005.36 1005.52 1005.70 1005.55 1005.36 1005.23 1004.82 1004.41 1004.50 1004.80 1004.88 1005.87 1007.09 1008.05 1009.71 1011.36 1011.53 1011.74
1021.75 1021.46 1021.21 1020.81 1020.46 1020.09 1019.64 1019.16 1018.68 1018.22 1017.72 1017.27 1016.81 1016.31 1015.79 1015.25 1014.75 1014.13 1013.41 1012.69 1012.37 1012.21 1012.20 1012.43 1012.43 1011.37 1007.64 1005.47 1005.39 1004.94 1004.88 1005.08 1005.24 1005.31 1005.07 1004.84 1005.03 1005.20 1004.95 1005.26 1005.62 1006.17 1007.63 1009.42 1011.06 1010.99 1011.29
1021.98 1021.66 1021.34 1020.95 1020.50 1020.10 1019.67 1019.17 1018.69 1018.22 1017.70 1017.19 1016.66 1016.06 1015.52 1014.97 1014.51 1013.95 1013.00 1012.06 1011.58 1011.68 1011.75 1011.64 1010.94 1010.18 1006.81 1005.11 1004.74 1004.62 1004.64 1004.80 1005.14 1005.38 1005.42 1005.43 1005.66 1005.70 1005.41 1005.52 1005.83 1006.11 1007.14 1009.25 1010.44 1010.64 1011.21
1022.07 1021.75 1021.40 1021.01 1020.58 1020.15 1019.69 1019.20 1018.71 1018.17 1017.62 1017.08 1016.45 1015.85 1015.26 1014.70 1014.27 1013.93 1012.83 1011.25 1011.76 1011.06 1010.29 1008.72 1007.43 1006.22 1004.60 1004.70 1004.64 1004.73 1004.69 1004.93 1004.96 1005.29 1005.69 1005.51 1006.02 1005.72 1005.12 1004.60 1004.67 1004.97 1006.31 1007.77 1009.54 1009.06 1009.79
1022.18 1021.84 1021.46 1021.06 1020.61 1020.16 1019.68 1019.19 1018.66 1018.10 1017.53 1016.89 1016.21 1015.53 1014.87 1014.20 1013.76 1013.69 1013.70 1011.50 1008.38 1007.19 1007.10 1006.30 1005.48 1004.52 1004.11 1004.06 1004.26 1004.33 1004.57 1005.09 1005.08 1005.42 1005.46 1005.80 1005.53 1004.73 1004.17 1003.78 1003.79 1004.26 1005.37 1007.23 1009.36 1009.47 1010.35
1022.31 1021.91 1021.50 1021.07 1020.62 1020.17 1019.67 1019.10 1018.56 1017.98 1017.35 1016.71 1016.03 1015.32 1014.59 1013.67 1012.80 1012.90 1011.44 1009.29 1006.87 1006.12 1006.23 1004.79 1003.93 1003.57 1003.59 1003.79 1003.62 1003.99 1004.43 1004.39 1004.69 1004.93 1005.02 1005.03 1004.32 1003.78 1003.46 1003.03 1002.96 1003.55 1004.44 1005.71 1007.05 1007.66 1007.35
1022.46 1021.96 1021.48 1021.02 1020.56 1020.13 1019.61 1019.03 1018.41 1017.83 1017.22 1016.51 1015.80 1015.17 1014.51 1013.47 1012.40 1011.07 1009.33 1007.02 1006.51 1005.96 1005.84 1003.82 1003.09 1002.72 1002.86 1003.02 1003.27 1003.40 1003.83 1004.25 1003.89 1004.02 1004.04 1004.07 1003.18 1003.11 1002.74 1002.55 1002.48 1003.07 1003.92 1004.74 1005.89 1006.93 1007.28
1022.38 1021.87 1021.49 1021.03 1020.53 1020.05 1019.54 1018.98 1018.33 1017.64 1017.00 1016.31 1015.56 1014.97 1014.43 1014.64 1013.20 1011.06 1007.95 1006.73 1006.14 1005.96 1005.17 1002.59 1002.25 1002.07 1002.04 1002.73 1002.97 1003.38 1003.45 1003.55 1003.77 1003.57 1003.50 1003.42 1002.82 1002.37 1002.01 1002.13 1002.12 1002.82 1003.12 1004.17 1005.19 1006.41 1006.98
1022.23 1021.83 1021.52 1021.10 1020.58 1020.05 1019.47 1018.88 1018.20 1017.51 1016.74 1016.02 1015.24 1014.73 1014.35 1013.43 1012.95 1009.36 1008.07 1007.30 1006.71 1006.39 1003.75 1001.69 1001.66 1001.91 1002.29 1002.23 1002.54 1003.19 1003.49 1003.73 1003.54 1003.52 1003.18 1003.07 1002.38 1002.11 1001.89 1001.97 1002.26 1002.52 1003.35 1004.23 1005.22 1006.61 1007.62
1022.12 1021.76 1021.40 1021.02 1020.56 1019.99 1019.39 1018.75 1018.06 1017.27 1016.43 1015.54 1014.65 1013.98 1014.38 1012.94 1010.29 1007.97 1008.10 1007.43 1007.19 1005.34 1001.87 1001.37 1001.38 1001.36 1001.61 1001.89 1002.31 1002.81 1003.27 1003.49 1003.74 1003.65 1003.41 1002.90 1002.32 1002.02 1002.05 1002.42 1002.60 1003.01 1003.95 1005.26 1006.80 1007.66 1008.33
1021.95 1021.57 1021.21 1020.82 1020.39 1019.86 1019.26 1018.59 1017.89 1017.12 1016.15 1015.09 1013.82 1012.43 1011.24 1010.54 1009.15 1008.67 1008.49 1008.28 1006.94 1003.92 1002.18 1000.90 1000.93 1001.10 1001.18 1001.36 1001.71 1002.23 1002.70 1003.01 1002.78 1002.89 1002.90 1002.74 1002.40 1002.02 1001.94 1002.31 1002.71 1003.29 1004.28 1005.63 1007.12 1008.33 1009.20
1021.76 1021.38 1020.99 1020.60 1020.20 1019.76 1019.19 1018.54 1017.81 1016.92 1015.90 1014.77 1013.08 1010.84 1009.94 1008.29 1008.65 1009.05 1009.09 1008.07 1005.36 1003.21 1001.66 1000.80 1000.86 1001.14 1001.12 1001.18 1001.61 1001.91 1002.21 1002.13 1001.61 1002.18 1002.74 1002.39 1001.96 1001.92 1001.82 1002.24 1002.82 1003.42 1004.16 1004.73 1006.53 1007.80 1009.35
1021.51 1021.16 1020.76 1020.42 1020.09 1019.70 1019.20 1018.55 1017.84 1016.89 1015.67 1014.39 1013.50 1010.92 1007.69 1006.38 1007.23 1008.28 1008.53 1007.04 1005.06 1003.10 1002.23 1001.06 1001.31 1000.86 1001.02 1001.06 1001.55 1001.66 1001.63 1001.09 1001.40 1001.72 1002.10 1002.54 1002.83 1002.12 1001.90 1002.27 1002.79 1003.52 1004.26 1005.51 1007.36 1009.40 1010.40
1021.17 1020.87 1020.58 1020.19 1019.88 1019.59 1019.22 1018.65 1017.91 1016.99 1015.61 1013.71 1013.09 1010.03 1005.11 1005.15 1006.49 1007.71 1007.38 1006.06 1004.44 1002.79 1002.02 1001.45 1001.45 1001.25 1001.07 1000.98 1001.10 1001.15 1001.02 1000.99 1001.15 1001.74 1002.01 1002.67 1003.19 1002.92 1002.71 1004.16 1004.55 1004.82 1005.26 1006.58 1008.75 1010.69 1011.70
1020.76 1020.55 1020.28 1019.93 1019.66 1019.41 1019.14 1018.68 1018.17 1017.39 1016.01 1013.98 1012.83 1009.60 1004.56 1004.69 1006.27 1006.65 1006.49 1005.58 1004.37 1002.63 1001.55 1001.21 1001.38 1001.40 1001.23 1001.06 1000.99 1001.01 1001.02 1000.99 1001.34 1001.88 1002.76 1003.45 1003.74 1004.49 1005.34 1005.47 1005.18 1005.43 1006.15 1007.02 1008.90 1011.27 1012.06
1020.37 1020.18 1019.89 1019.68 1019.43 1019.21 1019.06 1018.75 1018.32 1017.88 1017.48 1016.85 1014.03 1010.12 1005.56 1004.57 1005.80 1006.18 1005.74 1004.89 1003.83 1002.51 1001.74 1001.09 1001.45 1001.34 1001.19 1001.32 1001.51 1001.24 1001.19 1001.80 1002.00 1002.53 1003.57 1004.01 1004.58 1005.54 1006.20 1006.15 1005.81 1006.16 1006.53 1007.07 1008.28 1009.86 1011.45
1019.92 1019.74 1019.56 1019.41 1019.20 1019.05 1018.89 1018.57 1018.41 1018.01 1017.72 1017.37 1014.75 1010.61 1006.75 1005.63 1005.57 1005.79 1005.57 1004.52 1003.27 1001.97 1001.37 1000.79 1000.95 1001.08 1001.29 1001.44 1001.63 1001.75 1001.51 1001.69 1002.38 1003.13 1003.85 1004.31 1005.01 1005.89 1006.29 1006.40 1006.40 1006.61 1006.50 1006.97 1008.23 1009.49 1010.69
1019.59 1019.37 1019.20 1019.12 1018.96 1018.94 1018.90 1018.55 1018.22 1017.86 1017.50 1017.64 1014.64 1011.19 1009.60 1008.00 1007.23 1007.01 1005.84 1004.70 1003.56 1002.50 1001.39 1000.67 1000.95 1000.94 1001.27 1001.71 1001.96 1001.84 1001.76 1001.99 1002.29 1003.10 1003.67 1004.46 1005.31 1005.62 1005.61 1005.63 1005.94 1006.17 1006.30 1006.82 1007.77 1008.73 1009.53
1019.23 1018.99 1018.89 1018.88 1018.79 1018.65 1018.54 1018.45 1018.16 1017.74 1017.10 1016.74 1014.42 1012.54 1011.33 1009.82 1008.48 1007.18 1005.83 1004.46 1003.60 1002.59 1001.87 1001.24 1000.92 1000.99 1001.16 1001.49 1001.73 1001.92 1001.85 1002.05 1002.43 1003.25 1003.71 1004.26 1005.19 1005.47 1005.76 1005.35 1005.82 1006.34 1006.55 1006.56 1007.94 1009.01 1009.63
1018.85 1018.74 1018.68 1018.60 1018.59 1018.63 1018.53 1018.47 1018.13 1017.79 1017.15 1015.84 1014.32 1013.23 1012.49 1010.44 1009.12 1008.15 1006.20 1005.11 1004.12 1002.88 1001.76 1001.12 1001.08 1000.78 1000.82 1000.91 1001.17 1001.38 1001.68 1002.31 1003.00 1003.46 1003.94 1004.46 1005.29 1006.21 1006.50 1006.07 1005.95 1006.30 1006.32 1006.40 1007.19 1008.80 1009.26
1018.74 1018.59 1018.50 1018.37 1018.29 1018.30 1018.32 1018.34 1018.13 1018.04 1017.91 1017.39 1015.94 1014.93 1013.27 1011.22 1010.02 1008.49 1006.89 1005.79 1004.55 1003.66 1002.91 1001.42 1000.71 1001.03 1000.66 1000.45 1001.02 1001.54 1002.18 1002.74 1003.09 1003.45 1003.61 1004.53 1005.56 1006.41 1007.22 1006.84 1006.77 1006.43 1005.93 1005.92 1006.69 1008.02 1009.43
1018.56 1018.41 1018.24 1018.12 1018.10 1018.19 1018.20 1018.30 1017.98 1017.92 1017.86 1017.51 1016.38 1015.40 1014.00 1012.30 1010.69 1009.02 1007.52 1006.54 1005.34 1004.03 1003.14 1001.90 1000.71 1001.28 1001.11 1000.76 1002.05 1002.71 1003.30 1003.67 1003.78 1003.78 1003.92 1004.44 1005.54 1006.70 1007.30 1007.36 1006.87 1006.25 1005.72 1005.59 1006.45 1009.34 1009.67
1018.28 1018.16 1018.05 1017.90 1017.92 1018.07 1018.03 1018.03 1017.99 1017.81 1017.67 1017.36 1016.05 1015.23 1014.76 1013.52 1010.74 1010.04 1009.11 1007.88 1006.74 1005.49 1004.12 1002.60 1001.55 1001.60 1001.80 1001.94 1002.69 1003.68 1004.19 1004.12 1004.15 1004.10 1004.12 1004.70 1005.25 1006.68 1007.52 1007.87 1007.25 1006.33 1005.52 1005.59 1006.41 1009.39 1010.68
1018.19 1017.94 1017.75 1017.64 1017.69 1017.84 1017.86 1017.82 1017.85 1017.71 1017.50 1017.48 1016.20 1015.38 1015.09 1014.00 1011.29 1010.79 1009.61 1008.73 1007.75 1007.06 1005.98 1004.30 1003.49 1002.70 1002.05 1003.14 1003.76 1004.32 1004.62 1004.41 1004.56 1004.73 1004.91 1005.46 1006.19 1006.91 1007.40 1007.39 1006.91 1006.19 1005.90 1005.93 1006.66 1009.04 1010.32
1018.08 1017.86 1017.67 1017.60 1017.66 1017.69 1017.65 1017.70 1017.66 1017.62 1017.42 1017.36 1016.06 1015.15 1015.27 1014.27 1012.03 1010.61 1009.85 1009.63 1008.65 1007.93 1007.19 1005.94 1004.66 1003.99 1003.45 1003.96 1004.46 1004.68 1004.95 1004.93 1005.13 1005.32 1005.52 1006.00 1006.50 1007.02 1007.09 1007.09 1007.17 1006.31 1006.19 1006.66 1007.28 1007.84 1009.70
1018.08 1017.73 1017.58 1017.59 1017.62 1017.61 1017.58 1017.57 1017.55 1017.45 1017.29 1017.38 1016.27 1015.22 1015.13 1014.90 1012.48 1010.75 1009.93 1009.23 1009.01 1008.38 1008.15 1007.23 1005.81 1005.00 1004.37 1004.56 1004.64 1004.90 1005.40 1005.66 1006.43 1006.58 1005.85 1006.06 1006.16 1006.61 1007.01 1007.04 1006.56 1006.13 1006.47 1006.64 1006.89 1007.78 1008.49
Wind_Speed
16 16 15 15 14 15 15 15 15 15 15 15 15 16 16 16 17 17 16 15 15 14 13 12 10 9 6 4 8 5 6 6 5 4 7 10 11 10 12 3 12 8 18 5 13 14 16
15 15 15 15 15 15 15 15 15 15 15 16 16 16 17 17 18 18 17 15 16 14 13 11 8 7 3 5 9 10 8 6 8 8 9 12 10 12 13 4 20 6 21 9 10 15 11
14 14 15 15 15 16 15 16 16 16 16 16 17 17 17 18 19 20 19 17 17 15 12 9 5 5 5 11 3 10 10 7 9 11 12 11 9 7 12 8 18 11 10 7 7 12 6
14 14 14 16 16 15 16 17 17 17 17 17 18 18 19 19 20 20 19 18 18 14 10 6 3 5 7 1 5 8 9 10 12 11 8 10 9 6 5 4 5 6 3 9 5 17 4
15 15 16 16 15 16 17 16 18 18 18 18 18 19 20 20 20 19 19 21 18 12 8 3 4 4 8 2 4 9 9 8 6 7 7 9 7 4 10 4 3 4 4 9 4 8 8
14 14 14 16 17 17 17 15 19 19 19 19 19 18 18 18 18 18 22 18 7 10 5 8 8 6 7 5 5 3 3 6 4 7 5 4 3 3 6 2 4 2 5 9 5 6 14
14 14 15 15 15 15 16 16 16 17 17 18 17 18 19 19 17 14 13 2 1 2 5 10 4 6 7 5 4 5 4 7 6 4 6 8 2 6 13 13 7 5 5 8 6 6 8
14 15 15 16 15 16 17 17 17 17 18 20 20 20 21 21 18 13 5 4 9 7 8 16 19 2 2 11 7 7 6 5 6 7 8 4 8 13 14 15 10 10 9 11 8 12 18
16 15 15 15 16 18 18 18 18 18 19 20 20 21 21 23 24 3 6 9 12 8 4 9 11 11 7 5 8 9 9 7 8 8 9 9 11 15 15 13 8 4 6 6 7 12 9
17 14 14 15 15 16 18 18 19 19 20 21 21 21 20 27 3 6 6 15 10 7 3 7 7 5 5 8 2 12 9 9 6 8 9 8 12 10 11 10 6 5 11 9 5 5 6
17 12 13 15 16 16 17 19 20 20 21 22 22 20 19 9 8 5 9 14 9 3 5 14 7 7 6 6 10 6 6 5 9 9 0 10 9 10 2 7 5 1 6 2 6 4 3
14 14 14 15 17 17 18 19 20 21 22 23 23 20 18 3 4 12 12 14 8 1 7 7 9 8 7 10 7 6 5 4 8 9 4 9 6 3 2 6 8 11 3 4 4 1 2
14 14 14 15 16 17 18 19 20 22 24 25 25 23 8 6 7 5 13 4 3 5 6 9 10 11 12 8 8 9 9 8 6 2 5 9 10 4 4 6 10 8 3 3 3 4 5
13 13 14 14 15 16 18 20 21 22 25 26 28 31 9 8 9 9 5 3 5 11 13 5 4 2 6 11 8 10 8 7 10 8 5 8 6 8 8 6 4 7 6 6 2 5 7
13 14 13 13 14 15 17 20 21 23 26 26 30 3 4 6 12 4 2 5 6 7 14 4 6 6 7 6 2 6 7 9 6 3 4 6 6 8 7 5 1 9 4 10 4 6 4
13 14 14 13 14 14 16 18 20 24 27 27 6 5 9 10 12 4 2 8 9 15 19 7 7 6 2 3 6 6 8 5 4 5 2 5 3 2 5 6 5 6 6 7 6 5 4
13 13 13 13 13 14 15 17 19 23 28 30 3 5 8 13 11 4 7 7 13 19 17 0 9 9 8 4 5 4 2 6 5 6 3 4 3 4 4 7 5 7 6 6 8 4 2
12 12 12 12 12 13 13 15 17 20 28 8 6 5 3 9 4 4 10 11 16 24 10 2 5 7 8 6 3 5 1 5 8 6 5 6 2 4 3 4 6 4 4 5 5 2 2
13 12 12 11 11 11 12 13 14 15 14 7 5 5 9 7 7 8 10 21 22 23 18 8 5 7 8 5 4 4 7 7 4 5 2 5 3 3 9 10 7 5 3 4 3 6 6
14 13 12 10 10 9 10 11 12 13 11 4 5 5 4 5 5 9 12 17 20 22 18 7 6 8 5 1 6 4 3 8 7 6 5 3 2 5 5 7 4 2 2 3 4 1 3
13 12 11 10 9 8 9 12 12 13 11 3 4 4 7 5 7 13 12 18 20 20 14 7 5 5 4 3 7 6 7 7 8 11 5 3 4 5 9 7 8 7 8 8 7 5 5
13 12 9 9 9 7 7 9 12 14 18 3 4 5 7 11 10 11 11 12 17 20 13 14 7 9 7 5 6 5 3 5 3 6 6 4 5 5 6 7 9 7 9 9 8 4 3
11 8 7 9 8 7 7 9 10 12 12 4 5 4 4 6 8 9 7 14 17 16 15 9 15 10 9 10 9 5 6 6 2 1 6 0 3 4 5 5 1 4 6 7 9 6 5
9 8 9 10 8 6 6 8 8 9 9 4 4 5 3 6 7 10 19 19 19 17 10 13 12 3 3 11 7 7 7 6 7 9 1 2 0 3 4 6 5 1 2 5 6 9 9
10 9 9 10 7 6 6 8 8 8 8 5 5 3 4 7 9 15 15 16 17 17 16 11 0 4 10 7 4 4 2 2 6 7 5 4 3 1 3 3 2 2 2 4 3 6 9
11 10 9 9 6 5 5 7 8 8 9 5 6 4 3 5 6 9 13 13 12 8 9 7 5 5 5 0 4 4 4 4 2 2 4 5 4 6 1 2 4 7 3 3 10 8 16
10 10 9 6 5 5 5 6 7 8 8 4 5 8 3 6 9 8 7 7 8 8 5 7 8 8 1 1 0 4 4 3 4 2 1 1 2 3 3 5 4 3 3 6 3 5 18
10 9 6 4 5 5 5 6 6 8 7 5 6 3 1 5 12 12 11 10 10 4 4 7 6 4 3 3 2 2 3 1 4 2 4 6 5 4 2 2 3 2 5 6 6 14 19
10 9 6 3 4 5 6 6 6 7 6 5 4 2 2 4 9 17 20 21 18 13 6 4 3 3 3 2 0 3 3 4 3 4 7 2 5 3 2 6 6 2 5 3 2 4 10
Wind_Direction
22 17 15 12 8 5 1 359 357 354 351 348 343 339 334 330 326 323 319 318 317 315 315 312 311 315 301 237 243 146 167 162 189 188 235 252 269 264 261 247 66 333 78 57 151 123 146
22 17 13 11 7 5 1 358 357 352 348 344 339 337 333 329 324 321 317 316 315 314 314 308 303 305 244 270 114 139 170 159 235 204 237 245 255 262 276 117 117 208 110 243 163 128 158
19 17 13 9 7 5 2 359 357 352 348 343 338 335 334 330 326 322 318 314 312 312 308 300 285 265 263 255 114 157 167 196 220 214 242 255 270 308 333 315 140 169 122 161 131 120 123
19 17 8 8 7 3 1 358 355 351 349 344 338 335 333 330 326 320 312 308 307 305 299 285 225 264 258 130 341 169 197 216 225 243 267 298 338 330 291 119 97 111 71 149 55 39 163
20 16 11 8 7 4 1 354 355 351 349 343 339 337 333 329 326 318 311 301 296 286 273 177 212 230 272 154 226 247 196 203 192 271 278 296 360 300 310 287 307 213 138 64 138 163 220
12 10 7 7 7 3 358 350 355 351 347 343 339 330 324 322 321 319 311 286 280 309 206 204 262 297 255 222 169 190 274 333 178 223 255 249 272 251 293 276 228 152 120 99 221 168 220
11 5 4 359 355 351 349 349 345 347 342 338 329 323 321 319 319 323 332 29 338 271 242 216 217 235 125 92 156 248 157 235 240 199 226 233 177 226 241 245 201 202 166 148 194 214 180
1 356 356 356 354 351 348 345 341 335 334 333 329 326 324 319 314 317 283 251 276 277 304 226 256 208 181 180 177 157 170 232 186 227 228 288 225 248 250 254 236 187 188 102 62 322 209
360 353 350 346 351 354 348 341 339 336 331 330 329 326 324 320 314 257 219 249 280 295 283 287 214 215 179 199 224 163 177 220 228 229 224 208 238 228 255 272 275 48 260 141 160 218 231
1 348 342 342 339 343 344 341 335 333 330 328 327 326 328 328 329 338 255 249 236 339 295 245 185 149 174 209 177 151 200 233 238 240 243 217 266 251 231 267 266 191 152 124 173 200 227
355 335 337 338 339 338 340 338 334 332 329 326 324 325 323 317 307 286 288 324 322 347 287 159 171 140 203 224 144 184 193 290 268 295 65 249 248 275 216 240 335 216 88 171 184 235 259
322 332 338 337 336 335 335 336 333 330 326 324 321 321 332 119 206 247 297 295 304 283 244 149 144 175 193 230 138 137 190 224 257 285 195 260 302 354 9 308 299 285 143 218 158 138 357
319 324 327 330 332 332 332 333 332 329 325 322 318 310 297 291 242 329 320 294 302 225 258 158 174 170 199 194 150 162 189 216 217 214 227 237 238 196 216 234 265 262 3 334 346 14 226
310 313 317 320 325 329 330 332 331 329 325 323 316 310 225 214 238 276 301 327 249 264 254 108 25 234 244 165 176 189 196 224 234 228 262 227 241 166 220 213 226 231 194 173 171 151 276
305 307 309 313 320 326 328 331 331 329 326 326 314 271 223 231 218 244 283 235 235 226 323 35 164 213 244 155 159 183 196 252 219 108 19 345 62 179 175 187 227 284 252 222 229 213 133
303 306 309 315 317 323 326 330 332 331 329 328 311 278 248 224 166 182 224 240 271 286 291 28 315 291 83 216 184 207 202 224 80 89 42 301 307 163 187 162 219 205 257 357 4 17 339
300 304 308 312 313 320 326 330 335 335 332 323 259 274 252 192 152 181 225 239 267 270 270 122 285 290 303 142 256 231 352 144 156 141 150 284 72 332 118 21 32 355 339 37 98 44 127
294 297 300 307 310 316 323 331 337 340 336 2 309 280 0 142 161 206 242 253 267 277 268 180 303 303 300 329 237 209 38 89 45 39 26 16 325 27 130 22 27 322 73 129 107 217 142
290 290 292 301 302 311 323 330 336 342 6 320 308 276 287 174 206 230 250 253 259 271 270 171 213 251 279 359 348 323 117 105 76 56 64 340 341 21 349 356 344 110 315 90 30 132 185
287 283 286 292 295 308 319 330 332 333 341 324 289 294 260 241 231 248 261 258 263 256 256 248 194 251 286 1 299 298 312 148 122 104 140 91 253 206 199 182 175 225 204 123 160 125 188
288 283 281 289 297 308 321 328 329 326 326 292 240 268 4 317 327 325 290 267 277 289 282 229 286 255 218 198 272 256 232 174 168 164 146 155 274 280 283 189 172 192 229 213 186 188 155
289 280 272 286 289 301 320 327 331 331 326 228 293 352 343 299 292 301 295 261 250 274 280 270 207 250 230 206 251 278 53 46 132 212 170 209 248 289 295 339 181 219 78 65 73 357 44
294 286 290 294 285 300 320 328 334 342 335 306 351 342 298 286 304 305 288 307 303 267 276 296 276 222 239 200 220 278 85 39 38 188 203 79 83 44 304 354 328 288 163 180 179 180 188
310 303 298 295 273 284 309 320 330 347 6 317 300 299 281 287 304 298 308 310 311 326 317 266 260 270 284 94 69 61 39 5 320 310 63 142 231 106 274 325 302 218 261 242 186 122 90
305 300 296 294 266 282 304 313 325 332 339 298 298 294 297 293 304 295 295 330 331 329 327 306 341 353 341 111 87 79 8 318 277 286 272 225 160 155 136 267 253 75 15 8 89 146 135
308 298 292 289 256 277 290 310 318 324 336 308 298 307 289 302 248 336 322 313 304 329 324 331 354 71 21 139 102 142 181 215 150 267 268 293 129 120 72 265 299 225 256 228 159 136 166
316 312 287 260 252 273 290 307 316 322 329 320 290 298 273 274 270 316 279 316 316 331 281 318 340 354 300 58 59 142 203 206 162 245 53 45 22 158 242 227 101 280 273 299 19 203 165
325 315 299 257 257 270 284 299 308 317 330 328 294 283 333 284 292 269 290 300 310 304 306 347 7 345 324 132 134 217 116 340 34 284 225 191 158 210 240 258 139 291 51 89 211 109 141
323 320 293 272 292 296 293 293 294 310 321 321 273 10 249 234 268 305 279 264 254 260 294 296 274 172 306 44 307 99 79 70 352 263 316 178 160 167 102 185 203 93 138 208 100 148 139